When you browse on this site, cookies collect data to enhance your experience and personalize the content and advertising you see.
Visit our Privacy Policy to learn more. By continuing to use the site, you agree to this use of cookies and data.
  • In United Kingdom
  • List of Countries
  • For 7 days
  • Water Temperature
  • Weather Map
  • Weather Widgets
  • user-avatar
    Login

    Hourly Weather Calafat

    Today, 21 January, Tuesday

    Time Temperature Precipitation Wind Pressure Humidity
    00:00 -1°C° 0 mm 3 mps 780 mmHg 77%
    01:00 -1°C° 0 mm 3 mps 780 mmHg 78%
    02:00 -2°C° 0 mm 3 mps 780 mmHg 81%
    03:00 -2°C° 0 mm 3 mps 780 mmHg 81%
    04:00 -2°C° 0 mm 3 mps 780 mmHg 81%
    05:00 -2°C° 0 mm 3 mps 779 mmHg 81%
    06:00 -2°C° 0 mm 3 mps 779 mmHg 81%
    07:00 -2°C° 0 mm 3 mps 779 mmHg 81%
    08:00 -3°C° 0 mm 4 mps 779 mmHg 81%
    09:00 -2°C° 0 mm 4 mps 779 mmHg 74%
    10:00 0°C° 0 mm 5 mps 779 mmHg 68%
    11:00 +1°C° 0 mm 5 mps 778 mmHg 61%
    12:00 +2°C° 0 mm 5 mps 778 mmHg 58%
    13:00 +2°C° 0 mm 5 mps 778 mmHg 55%
    14:00 +3°C° 0 mm 5 mps 777 mmHg 53%
    15:00 +2°C° 0 mm 5 mps 777 mmHg 56%
    16:00 +3°C° 0 mm 4 mps 776 mmHg 59%
    17:00 +1°C° 0 mm 4 mps 776 mmHg 62%
    18:00 0°C° 0 mm 4 mps 776 mmHg 66%
    19:00 -1°C° 0 mm 4 mps 776 mmHg 70%
    20:00 0°C° 0 mm 3 mps 776 mmHg 73%
    21:00 -1°C° 0 mm 3 mps 775 mmHg 74%
    22:00 -1°C° 0 mm 3 mps 775 mmHg 76%
    23:00 -1°C° 0 mm 3 mps 775 mmHg 77%

    Tomorrow, 22 January, Wednesday

    Time Temperature Precipitation Wind Pressure Humidity
    00:00 -1°C° 0 mm 3 mps 774 mmHg 77%
    01:00 -2°C° 0 mm 3 mps 774 mmHg 78%
    02:00 -2°C° 0 mm 3 mps 774 mmHg 79%
    03:00 -2°C° 0 mm 3 mps 773 mmHg 79%
    04:00 -2°C° 0 mm 2 mps 773 mmHg 78%
    05:00 -2°C° 0 mm 2 mps 772 mmHg 78%
    06:00 -2°C° 0 mm 2 mps 772 mmHg 77%
    07:00 -2°C° 0 mm 2 mps 771 mmHg 77%
    08:00 -2°C° 0 mm 2 mps 771 mmHg 76%
    09:00 0°C° 0 mm 3 mps 770 mmHg 66%
    10:00 +2°C° 0 mm 3 mps 770 mmHg 56%
    11:00 +4°C° 0 mm 4 mps 769 mmHg 47%
    12:00 +6°C° 0 mm 4 mps 769 mmHg 41%
    13:00 +7°C° 0 mm 4 mps 768 mmHg 36%
    14:00 +10°C° 0 mm 4 mps 767 mmHg 31%
    15:00 +8°C° 0 mm 5 mps 767 mmHg 32%
    16:00 +8°C° 0 mm 5 mps 766 mmHg 33%
    17:00 +7°C° 0 mm 5 mps 765 mmHg 35%
    18:00 +6°C° 0 mm 5 mps 765 mmHg 36%
    19:00 +5°C° 0 mm 5 mps 765 mmHg 37%
    20:00 +3°C° 0 mm 6 mps 765 mmHg 38%
    21:00 +3°C° 0 mm 6 mps 765 mmHg 40%
    22:00 +3°C° 0 mm 7 mps 765 mmHg 41%
    23:00 +3°C° 0 mm 7 mps 765 mmHg 43%

    Day after tomorrow, 23 January, Thursday

    Time Temperature Precipitation Wind Pressure Humidity
    00:00 +1°C° 0 mm 8 mps 766 mmHg 48%
    01:00 +1°C° 0 mm 8 mps 767 mmHg 53%
    02:00 0°C° 0 mm 8 mps 767 mmHg 57%
    03:00 0°C° 0 mm 7 mps 768 mmHg 61%
    04:00 -1°C° 0 mm 6 mps 768 mmHg 65%
    05:00 0°C° 0 mm 5 mps 769 mmHg 68%
    06:00 0°C° 0 mm 5 mps 769 mmHg 71%
    07:00 -1°C° 0 mm 4 mps 770 mmHg 73%
    08:00 -1°C° 0 mm 4 mps 770 mmHg 75%
    09:00 0°C° 0 mm 4 mps 771 mmHg 70%
    10:00 +1°C° 0 mm 4 mps 771 mmHg 64%
    11:00 +4°C° 0 mm 4 mps 771 mmHg 59%
    12:00 +4°C° 0 mm 4 mps 771 mmHg 55%
    13:00 +5°C° 0 mm 4 mps 771 mmHg 51%
    14:00 +6°C° 0 mm 4 mps 770 mmHg 48%
    15:00 +5°C° 0 mm 3 mps 770 mmHg 50%
    16:00 +5°C° 0 mm 3 mps 770 mmHg 53%
    17:00 +4°C° 0 mm 3 mps 770 mmHg 55%
    18:00 +4°C° 0 mm 2 mps 770 mmHg 60%
    19:00 +3°C° 0 mm 2 mps 770 mmHg 65%
    20:00 +2°C° 0 mm 2 mps 771 mmHg 70%
    21:00 +2°C° 0 mm 2 mps 771 mmHg 72%
    22:00 +2°C° 0 mm 1 mps 771 mmHg 73%
    23:00 +2°C° 0 mm 1 mps 771 mmHg 75%

    24 January, Friday

    Time Temperature Precipitation Wind Pressure Humidity
    00:00 +2°C° 0 mm 1 mps 771 mmHg 76%
    01:00 +1°C° 0 mm 1 mps 771 mmHg 78%
    02:00 0°C° 0 mm 0 mps 771 mmHg 79%
    03:00 0°C° 0 mm 0 mps 770 mmHg 79%
    04:00 -1°C° 0 mm 0 mps 770 mmHg 80%
    05:00 -1°C° 0 mm 0 mps 770 mmHg 81%
    06:00 -1°C° 0 mm 0 mps 770 mmHg 82%
    07:00 -1°C° 0 mm 0 mps 770 mmHg 82%
    08:00 -1°C° 0 mm 0 mps 770 mmHg 83%
    09:00 0°C° 0 mm 0 mps 770 mmHg 76%
    10:00 +2°C° 0 mm 0 mps 770 mmHg 69%
    11:00 +4°C° 0 mm 1 mps 770 mmHg 62%
    12:00 +5°C° 0 mm 1 mps 769 mmHg 59%
    13:00 +6°C° 0 mm 1 mps 769 mmHg 55%
    14:00 +7°C° 0 mm 1 mps 768 mmHg 51%
    15:00 +6°C° 0 mm 1 mps 768 mmHg 53%
    16:00 +6°C° 0 mm 1 mps 768 mmHg 55%
    17:00 +5°C° 0 mm 1 mps 768 mmHg 57%
    18:00 +5°C° 0 mm 1 mps 768 mmHg 60%
    19:00 +3°C° 0 mm 0 mps 768 mmHg 63%
    20:00 +2°C° 0 mm 0 mps 768 mmHg 66%
    21:00 +2°C° 0 mm 0 mps 768 mmHg 67%
    22:00 +1°C° 0 mm 0 mps 767 mmHg 68%
    23:00 +1°C° 0 mm 0 mps 767 mmHg 70%

    25 January, Saturday

    Time Temperature Precipitation Wind Pressure Humidity
    00:00 +1°C° 0 mm 0 mps 767 mmHg 71%
    01:00 0°C° 0 mm 0 mps 766 mmHg 72%
    02:00 0°C° 0 mm 0 mps 766 mmHg 73%
    03:00 0°C° 0 mm 0 mps 766 mmHg 74%
    04:00 0°C° 0 mm 0 mps 766 mmHg 74%
    05:00 0°C° 0 mm 0 mps 765 mmHg 75%
    06:00 0°C° 0 mm 0 mps 765 mmHg 76%
    07:00 0°C° 0 mm 0 mps 765 mmHg 76%
    08:00 0°C° 0 mm 0 mps 765 mmHg 77%
    09:00 +1°C° 0 mm 0 mps 765 mmHg 71%
    10:00 +4°C° 0 mm 1 mps 765 mmHg 64%
    11:00 +6°C° 0 mm 1 mps 765 mmHg 57%
    12:00 +7°C° 0 mm 1 mps 765 mmHg 54%
    13:00 +9°C° 0 mm 1 mps 764 mmHg 51%
    14:00 +10°C° 0 mm 2 mps 764 mmHg 48%
    15:00 +9°C° 0 mm 2 mps 764 mmHg 51%
    16:00 +9°C° 0 mm 2 mps 764 mmHg 54%
    17:00 +9°C° 0 mm 2 mps 764 mmHg 57%
    18:00 +8°C° 0 mm 2 mps 764 mmHg 60%
    19:00 +8°C° 0 mm 2 mps 764 mmHg 63%
    20:00 +7°C° 0 mm 2 mps 764 mmHg 66%
    21:00 +7°C° 0 mm 2 mps 764 mmHg 68%
    22:00 +7°C° 0 mm 2 mps 764 mmHg 70%
    23:00 +6°C° 0 mm 2 mps 764 mmHg 71%

    26 January, Sunday

    Time Temperature Precipitation Wind Pressure Humidity
    00:00 +6°C° 0 mm 2 mps 764 mmHg 73%
    01:00 +6°C° 0 mm 2 mps 763 mmHg 74%
    02:00 +6°C° 0 mm 2 mps 763 mmHg 75%
    03:00 +6°C° 0 mm 2 mps 763 mmHg 76%
    04:00 +6°C° 0 mm 2 mps 763 mmHg 78%
    05:00 +6°C° 0 mm 2 mps 763 mmHg 79%
    06:00 +5°C° 0 mm 2 mps 763 mmHg 80%
    07:00 +5°C° 0 mm 2 mps 764 mmHg 80%
    08:00 +5°C° 0 mm 2 mps 764 mmHg 81%
    09:00 +7°C° 0 mm 2 mps 764 mmHg 75%
    10:00 +8°C° 0 mm 2 mps 764 mmHg 70%
    11:00 +10°C° 0 mm 3 mps 764 mmHg 64%
    12:00 +11°C° 0 mm 3 mps 764 mmHg 61%
    13:00 +12°C° 0 mm 3 mps 764 mmHg 58%
    14:00 +13°C° 0 mm 3 mps 763 mmHg 56%
    15:00 +13°C° 0 mm 2 mps 763 mmHg 59%
    16:00 +13°C° 0 mm 2 mps 763 mmHg 63%
    17:00 +12°C° 0 mm 2 mps 764 mmHg 66%
    18:00 +10°C° 0 mm 2 mps 764 mmHg 69%
    19:00 +11°C° 0 mm 1 mps 764 mmHg 72%
    20:00 +10°C° 0 mm 1 mps 764 mmHg 75%
    21:00 +10°C° 0 mm 1 mps 764 mmHg 77%
    22:00 +9°C° 0 mm 1 mps 765 mmHg 78%
    23:00 +9°C° 0 mm 1 mps 765 mmHg 79%
    Show more